Regional Weather Roundup
Issued by NWS Cleveland, OH

Home | Current Version | Previous Version | Graphics & Text | Print | Product List | Glossary On
Versions: 1 2 3 4 5 6 7 8 9 10 11 12 13 14 15 16 17 18 19 20 21 22 23 24 25 26 27 28 29 30 31 32 33 34 35 36 37 38 39 40 41 42 43 44 45 46 47 48 49 50
000
ASUS41 KCLE 311102
RWRCLE
OHIO REGIONAL WEATHER ROUNDUP
NATIONAL WEATHER SERVICE CLEVELAND, OH
700 AM EDT SUN AUG 31 2014

NOTE: "FAIR" INDICATES FEW OR NO CLOUDS BELOW 12,000 FEET WITH NO
SIGNIFICANT WEATHER AND/OR OBSTRUCTIONS TO VISIBILITY.

OHZ001>008-015>018-024>027-034-035-043-044-311200-
   NORTHWEST OHIO

CITY           SKY/WX    TMP DP  RH WIND       PRES   REMARKS
DEFIANCE       CLOUDY    71  67  87 S7        29.97R
FINDLAY        CLOUDY    71  67  87 SW7       29.98R
TOLEDO EXPRESS CLOUDY    72  67  84 SW8       29.96R
TOLEDO EXEC    CLOUDY    73  66  78 SW13      29.96R
LIMA           CLOUDY    71  66  84 SW5       30.00R
$$

OHZ009>014-019>023-028>033-038-089-311200-
   NORTHEAST OHIO

CITY           SKY/WX    TMP DP  RH WIND       PRES   REMARKS
CLE-HOPKINS    CLOUDY    71  67  87 S10       30.00R
CLE-LAKEFRONT  CLOUDY    74  67  78 S9        29.97R
CUY CO. ARPT   CLOUDY    73  70  88 S12       29.99
LORAIN-ELYRIA  CLOUDY    75  67  76 SW12      30.00R
ASHTABULA      CLOUDY    69  67  93 S9        30.00R
AKRON-CANTON   CLOUDY    71  67  87 SW9       30.04R FOG
WOOSTER        CLOUDY    70  68  93 SW10      30.04R FOG
MANSFIELD      CLOUDY    70  68  93 S5        30.03R
YOUNGSTOWN     LGT RAIN  69  67  93 S7        30.03F FOG
$$

OHZ042-051>053-060>062-070>072-077>081-311200-
  SOUTHWEST OHIO

CITY           SKY/WX    TMP DP  RH WIND       PRES   REMARKS
CINC-COVINGTON LGT RAIN  72  70  93 S10       30.04R
CINC-LUNKEN    HVY RAIN  72  71  97 S10       30.04R FOG
HAMILTON       RAIN      73  71  93 CALM      30.03R FOG
DAYTON         RAIN      71  69  93 SW6       30.04R FOG
WRIGHT-PAT AFB LGT RAIN  72  70  94 SE5       30.03R FOG
DAYTON GENERAL CLOUDY    71  70  96 S7        30.03R FOG
WILMINGTON     HVY RAIN  70  69  97 S7        30.05R FOG
$$

OHZ036-037-039>041-045>050-054>059-063>069-073>076-082>088-311200-
  CENTRAL AND SOUTHEAST OHIO

CITY           SKY/WX    TMP DP  RH WIND       PRES   REMARKS
COLUMBUS       CLOUDY    73  69  87 S3        30.04R FOG
OSU AIRPORT    CLOUDY    71  69  93 S8        30.04R FOG
BOLTON FIELD   LGT RAIN  69  69 100 S6        30.05R
RICKENBACK AFB RAIN      71  66  86 S7        30.04R
NEWARK         LGT RAIN  71  69  93 S6        30.05R FOG
MARION         CLOUDY    70  67  90 S7        30.02R FOG
LANCASTER      LGT RAIN  71  69  93 SE5       30.06R FOG
ZANESVILLE     LGT RAIN  70  68  93 S5        30.06R FOG
NEW PHILLY     LGT RAIN  70  69  97 SE3       30.06R FOG
$$


USA.gov is the U.S. government's official web portal to all federal, state and local government web resources and services.